Regional Weather Roundup
Issued by NWS Wakefield, VA

Home | Current Version | Previous Version | Text Only | Print | Product List | Glossary On
Versions: 1 2 3 4 5 6 7 8 9 10 11 12 13 14 15 16 17 18 19 20 21 22 23 24 25 26 27 28 29 30 31 32 33 34 35 36 37 38 39 40 41 42 43 44 45 46 47 48 49 50
000
ASUS41 KAKQ 262115
RWRAKQ

REGIONAL WEATHER ROUNDUP
NATIONAL WEATHER SERVICE WAKEFIELD VA
500 PM EDT SUN MAY 26 2019

Note: "fair" indicates few or no clouds below 12,000 feet with no
significant weather and/or obstructions to visibility. * = Denotes
station may not report precipitation (e.g., rain,snow,etc.),
thunder or fog.

VAZ042-051-052>054-056-262200-
NORTHERN VIRGINIA

CITY           SKY/WX    TMP DP  RH WIND       PRES   REMARKS
WASH NATIONAL  PTSUNNY   90  62  39 W10       29.93S THUNDER
DULLES         FAIR      88  65  46 W5        29.93F
FORT BELVOIR   NOT AVBL
QUANTICO       FAIR      86  71  60 W16       29.95S
FREDERICKSBRG* FAIR      80  70  70 SW5       29.95F
STAFFORD*      FAIR      82  67  59 S5        30.00S
WARRENTON      FAIR      84  69  58 S9        29.95S
CULPEPER*      FAIR      84  67  57 S6        29.97S
MANASSAS*      FAIR      88  73  61 S12       29.94  HX  95
LEESBURG*      FAIR      86  68  54 W7        29.95S
WINCHESTER     FAIR      77  70  78 CALM      29.99R
FRONT ROYAL*   FAIR      86  64  48 CALM      29.96S
LURAY*         MOCLDY    86  64  48 W7        29.97F
$$

VAZ048-049-060>072-079>083-262200-
CENTRAL AND SOUTH CENTRAL VIRGINIA

CITY           SKY/WX    TMP DP  RH WIND       PRES   REMARKS
RICHMOND       PTSUNNY   90  65  43 SW9       29.97R
CHESTERFIELD*  FAIR      90  68  48 W12       29.97F
PETERSBURG*    FAIR      92  63  38 SW7       29.97F
HANOVER        CLOUDY    81  65  58 VRB7      29.99R
TAPPAHANNOCK*  LGT RAIN  84  68  59 W3        29.97S
QUINTON*       MOCLDY    87  68  53 CALM      29.96S
CHARLOTTSVILLE FAIR      84  71  65 SE8       29.97F
GORDONSVILLE*  FAIR      77  72  84 CALM      29.98S
ORANGE*        FAIR      79  72  78 S8        29.98S
LOUISA*        FAIR      75  71  87 SE8       30.03F
BUMPASS*       FAIR      74  72  95 S5        29.99F
FARMVILLE*     FAIR      90  68  48 SW9       29.97S
CREWE*         FAIR      90  66  45 W7        29.98S
FORT PICKETT*  MOCLDY    90  68  48 W8        29.98F
CHASE CITY*    FAIR      91  63  39 W3        29.99F
CLARKSVILLE*   FAIR      91  61  35 MISG      29.98F
SOUTH HILL*    FAIR      93  64  37 W3        30.04F
LAWRENCEVILLE* FAIR      92  57  30 SW7       29.99S
EMPORIA*       FAIR      92  62  35 SW6       29.98S
$$

VAZ088>098-262200-
SOUTHEAST VIRGINIA

CITY           SKY/WX    TMP DP  RH WIND       PRES   REMARKS
NORFOLK        FAIR      91  65  41 NE6       29.95F
VIRGINIA BEACH PTSUNNY   84  65  52 SE7       29.96S
NORFOLK NAVAL  PTSUNNY   90  68  48 E3        29.97F
WEST POINT*    FAIR      87  70  57 W5        29.97S
SALUDA*        CLOUDY    80  77  90 E6        29.97R
NEWPORT NEWS   FAIR      91  68  46 SW7G22    29.96F HX  95
LANGLEY AFB    FAIR      91  69  47 NW6       29.96F HX  95
FORT EUSTIS    FAIR      90  71  52 S3        29.94S HX  96
WILLIAMSBURG*  FAIR      93  70  46 CALM      29.97S HX  99
HR EXEC AP*    FAIR      91  68  46 NW3       29.96F HX  95
FRANKLIN*      FAIR      93  62  35 W5        29.96S
US460-WAKEFLD  FAIR      94  63  35 W8        29.96S HX  95
$$

VAZ020-022-025-037-045-262200-
WEST CENTRAL AND SOUTHWEST VIRGINIA

CITY           SKY/WX    TMP DP  RH WIND       PRES   REMARKS
STAUNTON*      CLOUDY    85  66  53 W6        30.02F
WAYNESBORO*    FAIR      85  64  48 W9        30.02F
HOT SPRINGS VA FAIR      75  68  77 W13       30.17F
LYNCHBURG      FAIR      88  64  44 VRB7      30.01F
DANVILLE       FAIR      92  56  29 NW8       29.99F
SOUTH BOSTON*  FAIR      92  59  32 W5        29.99F
MARTINSVILLE   FAIR      91  63  38 SW5       30.04F
ROANOKE        FAIR      91  59  33 W13G23    30.03F
BLACKSBURG     FAIR      85  63  47 NW7       30.12F
DUBLIN*        FAIR      85  62  44 NW8       30.10F
MARION*        FAIR      83  64  53 W15G22    30.16F
HILLSVILLE*    FAIR      82  61  49 W8        30.13F
RICHLANDS*     MOCLDY    79  60  51 SW5       30.15F
WISE*          FAIR      82  59  44 SW14      30.16F
ABINGDON*      FAIR      84  61  45 W9G17     30.13F
$$

MDZ021>025-VAZ099-100-262200-
SOUTHERN MARYLAND AND THE DELMARVA PENINSULA

CITY           SKY/WX    TMP DP  RH WIND       PRES   REMARKS
PATUXENT RIVER PTSUNNY   83  72  69 SE5       29.94S
BAY BRIDGE APT FAIR      88  72  58 SW8       29.93S HAZE
LEONARDTOWN    FAIR      84  70  61 SW6       29.96F
DOVER          SUNNY     88  65  46 W14       29.91F
GEORGETOWN     FAIR      88  67  49 W6        29.93F
EASTON         MOSUNNY   81  73  78 SW3       29.98F
CAMBRIDGE      MOSUNNY   79  73  83 W3        29.96R
SALISBURY      FAIR      85  68  56 W8        29.94S
TANGIER        FAIR      82  68  61 S3        29.96S
OCEAN CITY     FAIR      80  65  59 SE3       29.94S
WALLOPS ISLAND FAIR     N/A N/A N/A W8        29.95F
ACCOMACK*      FAIR      90  65  43 W6        29.96S
$$

NCZ012>017-030>032-262200-
NORTH CENTRAL AND EASTERN NORTH CAROLINA

CITY           SKY/WX    TMP DP  RH WIND       PRES   REMARKS
ROANOKE RAPIDS FAIR      91  70  49 W12       29.97S HX  97
RALEIGH        FAIR      92  61  35 W9        30.01F
ELIZABETH CITY FAIR      91  68  46 SE8       29.96F HX  95
AHOSKIE*       NOT AVBL
EDENTON*       FAIR      95  69  43 SW6       29.96F HX 101
CURRITUCK*     FAIR      87  75  68 MISG      29.97F HX  96
KILL DEVIL HLS FAIR      87  67  50 MISG      29.97S
MANTEO         FAIR      84  75  75 S9        29.98F
CAPE HATTERAS  FAIR      83  76  79 SW9       29.99F
TARBORO*       FAIR      94  62  34 W9        29.96F HX  95
GOLDSBORO      FAIR      98  61  29 W13G20    29.97F HX  98
WASHINGTON     FAIR      94  65  38 SW9       29.97F HX  97
GREENVILLE     FAIR      95  64  36 NW3       29.98F HX  97
NEW BERN       FAIR      94  67  41 NW6       29.98F HX  97
WILMINGTON     FAIR      98  61  29 W12G20    29.98F HX  98
$$

VAZ048-262200-
ELSEWHERE

CITY           SKY/WX    TMP DP  RH WIND       PRES   REMARKS
HARRISBURG PA  FAIR      84  66  54 W10       29.90F
BALTIMORE      PTSUNNY   87  66  49 W9        29.91F
ANNAPOLIS      PTSUNNY   86  70  58 MISG      29.92S
ANDREWS AFB    FAIR      84  72  66 S9        29.93F
PHILADELPHIA   PTSUNNY   86  65  49 W13       29.89F
HENDERSON NC   FAIR      90  58  34 W6        29.99F
GREENSBORO     FAIR      91  64  40 W8        30.02F
ROCKY MOUNT    FAIR      95  63  34 W12       29.98F HX  96
$$

VAZ100-262200-
MARINE

STATION/POSITION TIME  TEMP    WIND        PRES    WAVE   SWELL
                       AIR SEA DIR/SP/G            HT/PER HT/PER
                 (UTC) (F)     (DEG/KT/KT) (MB)    (FT/S) (FT/S)
BRANDYWINE LGT   2018                      1013.5
CAPE MAY NJ      2048      63  210/  5/  6 1012.9F
LEWES DE         2048   82 67  170/  6/  9 1013.2F
15NM E FENWICK I 2050   68 66  170/  6/  6 1013.7F   4/11   3/11
OCEAN-CITY-INLET 2048          170/  4/  6   N/A
WACHAPREAGUE VA  2048      79  360/  2/  5 1013.9F
THOMAS POINT MD  2100   77 71  160/ 12/ 12 1014.3F
GOOSES REEF MD   2048   74      10/ 21/ 27 1015.3R
COVE POINT MD    2048   79     140/  6/ 10 1014.6R
SOLOMONS ISLAND  2048   84 73  250/  4/  5 1013.3F
BISHOPS HEAD MD  2042      81  160/  6/  6 1014.3F
PINEY POINT MD   2036          220/  4/  5   N/A
POTOMAC MD       2036   79 74  190/  8/ 10 1013.6F
CAMBRIDGE MD     2042      76              1014.1R
LEWISETTA VA     2048          170/  6/  7   N/A
RAPPAHANNOCK LGT 2048           60/  1/  2 1015.5F
STINGRAY PT      2048   79 78  130/  4/  6 1013.2F
YORK RVR RNG VA  2048   81     150/ 10/ 10 1014.9F
YORKTOWN VA      2048   90 76  250/  6/  8 1014.0F
JAMESTOWN VA     2048   87 81              1014.8F
DOMINION TERM VA 2048   87     120/  5/  6 1014.9F
KIPTOPEKE VA     2048          150/  2/  2   N/A
CAPE HENRY VA    2048   83     150/  8/ 10 1014.7F
WILLOUBY STN VA  2048           80/  5/  6   N/A
S CRANEY ISL VA  2048   89     350/  5/  7 1014.3F
CAPE HENRY BUOY  2100      74                N/A     2/13   2/13
1ST LANDING BUOY 2050   81      70/  4/  6 1014.1F
64NM E OF VA BCH 2050   71 69  210/  6/  6 1015.7F   4/11   5/11
DUCK PIER NC     2048      64  140/ 11/ 12 1014.8F
44100 DUCK FRF   2100      76                N/A     3/13   2/13
44056 DUCK FRF   2030      73                N/A     3/11   2/11
OREGON INLET NC  2048   80 81  180/ 11/ 14 1015.3F
HATTERAS NC      2048      76  210/  9/ 12 1015.7F
CAPE LOOKOUT NC  2100   80     210/ 11/ 15 1015.6F
$$



USA.gov is the U.S. government's official web portal to all federal, state and local government web resources and services.